カタログに戻る

DMSP 5D-3 F19

USA 249

運用中気象SSO
NORAD 39630·PAYLOAD·🇺🇸 United States

打ち上げ Apr 3, 2014 から Vandenberg Space Force Base

Loading…

次のパス (今後24時間)

TLE

最新Source: Space-Track

元期: Sep 14, 2026, 14:35 UTC

1 39630U 14015A   26257.60780349  .00000060  00000-0  53422-4 0  9997
2 39630  98.7882 256.1445 0009630 319.4043  40.6412 14.15002240642642

AllMySatでDMSP 5D-3 F19をリアルタイム追跡

Download on the App Store